Location: Grand Moustoir
(47.8355°N, 3.3120°W)
Time: 09:31:22
(UTC+00:00)

USA 238 - Pass Details

Date: 20 January 2020
Orbit: 1023 x 1189 km, 63.4° (Epoch: 20 February)

Event Time Altitude Azimuth Distance (km) Brightness Sun altitude
Exits shadow 04:51:16 45° 344° (NNW) 1,507 4.3 -30.3°
Maximum altitude 04:53:26 64° 44° (NE) 1,259 4.1 -29.9°
Drops below altitude 10° 05:00:46 10° 125° (SE) 3,082 6.7 -28.7°
Sets 05:03:34 0° 129° (SE) 4,055 7.4 -28.2°
